Starlink 36155

operational
NORAD ID: 66938 Int'l Des: 2025-286 Owner: SPXS Country: US Constellation: starlink
LEOCIRCULAR

Starlink 36155について

説明を読み込み中...

リアルタイム位置

3D地球を読み込み中...

次回通過

高度履歴

Altitude vs Time

uPlot chart will show altitude changes over time

軌道要素

1 66938U 25286P 25347.58336806 -.01244094 47534-3 -28999-2 0 9996
2 66938 53.1569 46.4105 0000826 61.8843 236.6101 15.96403566 2128
Epoch: Dec 13, 2025 • Age: 17 hours

現在のステータス

高度 290.4 km
速度 7.74 km/s
衛星直下点 27.24°N, 5.92°E
打ち上げ日 Dec 7, 2025
運用期間 6 days
タイプ internet

技術仕様

分類 Payload
質量 575.00 kg
乾燥質量 530.00 kg
総質量 575.00 kg
長さ 0.30 m
直径 4.10 m
スパン 29.00 m
形状 Box + pan
製造者 SPXS
バスタイプ Starlink V2MO
フェーズステータス In Orbit
所有者/国 SPXS/US

大規模コンステレーション

Loading constellations...